Regional Weather Roundup
Issued by NWS Upton, NY

Current Version | Previous Version | Text Only | Print | Product List | Glossary On
Versions: 1 2 3 4 5 6 7 8 9 10 11 12 13 14 15 16 17 18 19 20 21 22 23 24 25 26 27
000
ASUS41 KOKX 301005
RWROKX

REGIONAL WEATHER ROUNDUP
NATIONAL WEATHER SERVICE NEW YORK NY
600 AM EDT MON MAY 30 2016

NOTE: "FAIR" INDICATES FEW OR NO CLOUDS BELOW 12,000 FEET WITH NO
SIGNIFICANT WEATHER AND/OR OBSTRUCTIONS TO VISIBILITY.

NYZ071-072-176-178-NJZ106-104-301100-
NEW YORK CITY METRO AREA


CITY           SKY/WX    TMP DP  RH WIND       PRES   REMARKS
CENTRAL PARK   RAIN      70  68  93 CALM      30.02S FOG
LAGUARDIA APRT CLOUDY    70  70 100 SE6       29.98S
KENNEDY INTL   RAIN      64  63  96 S6        30.00F VSB 1/4
NEWARK/LIBERTY RAIN      69  68  96 CALM      29.99S FOG
BRNX BOT. GARD   N/A     68  66  94 CALM      29.99F
TETERBORO      RAIN      69  66  90 CALM      29.98S FOG
$$

NYZ177-179-078>081-301100-
LONG ISLAND NEW YORK

CITY           SKY/WX    TMP DP  RH WIND       PRES   REMARKS
FARMINGDALE    FOG       67  66  97 SW8       30.00S VSB 1/4
ISLIP          CLOUDY    67  66  97 SW6       30.01R
SHIRLEY        LGT RAIN  67  67 100 SW5       30.01S FOG
RIVERHEAD        N/A     68  68 100 CALM      30.00R
WESTHAMPTON    LGT RAIN  66  65  96 SW12G18   30.02S FOG
EAST HAMPTON   FOG       62  62 100 S7        30.01S VSB 1/4
MONTAUK POINT    N/A     63  63 100 S7        30.02F
$$

NYZ052-065-067-301100-
HUDSON VALLEY

CITY           SKY/WX    TMP DP  RH WIND       PRES   REMARKS
WHITE PLAINS   LGT RAIN  68  67  96 CALM      29.99F FOG
NEWBURGH       LGT RAIN  63  63 100 W7        30.03R FOG
MONTGOMERY     LGT RAIN  65  63  93 CALM      30.02R FOG
POUGHKEEPSIE   RAIN      67  63  87 NW3       30.00R FOG
ALBANY         LGT RAIN  69  66  90 S7        29.97S
$$

NJZ001-105-106-008-010-013-015-019>022-104-301100-
NEW JERSEY

CITY           SKY/WX    TMP DP  RH WIND       PRES   REMARKS
NEWARK/LIBERTY RAIN      69  68  96 CALM      29.99S FOG
TETERBORO      RAIN      69  66  90 CALM      29.98S FOG
CALDWELL       CLOUDY    68  65  90 CALM      30.00S
MORRISTOWN     LGT RAIN  66  64  94 CALM      30.00S
SOMERVILLE     CLOUDY    66  64  93 CALM      29.98R FOG
SUSSEX         HVY RAIN  64  62  93 CALM      30.01F FOG
ANDOVER          N/A     64  63  96 NE3       30.01S
TRENTON        CLOUDY    67  65  93 CALM      29.99S
MILLVILLE      CLOUDY    72  70  93 S3        30.00S
ATLANTIC CITY  CLOUDY    71  69  93 S7        30.01R
WRIGHTSTOWN    LGT RAIN  70  70 100 W5        29.97S FOG
TOMS RIVER     CLOUDY   N/A N/A N/A S7        30.00S
BELMAR         LGT RAIN  73  71  93 S6        30.01S
$$

PAZ047>061-062-071-301100-
EASTERN PENNSYLVANIA

CITY           SKY/WX    TMP DP  RH WIND       PRES   REMARKS
PHILADELPHIA   CLOUDY    71  68  90 W5        30.00S
ALLENTOWN      CLOUDY    66  64  93 NE3       30.01R
SCRANTON       CLOUDY    63  62  97 CALM      30.01S
$$

CTZ002-004>006-009-010-012-RIZ004-006-007-MAZ004-011-015-301100-
SOUTHERN NEW ENGLAND
 IN CT

CITY           SKY/WX    TMP DP  RH WIND       PRES   REMARKS
BRADLEY INTL   LGT RAIN  63  61  93 NW3       30.00R FOG
HARTFORD       LGT RAIN  70  66  87 S5        30.00R
DANBURY        RAIN      66  64  93 CALM      30.02R FOG
WTRBRY/OXFORD    N/A     64  63  94 SE5       30.03S
BRIDGEPORT     LGT RAIN  65  64  97 E5        30.00S FOG
MERIDEN        RAIN      68  66  93 CALM      30.01R FOG
NEW HAVEN      LGT RAIN  64  64 100 E3        30.00F FOG
CHESTER        RAIN      64  64 100 SE3       30.02S
GROTON         LGT RAIN  62  62 100 NE3       30.02R FOG
WILLIMANTIC    HVY RAIN  63  60  90 NE3       30.02F FOG

 IN RI

CITY           SKY/WX    TMP DP  RH WIND       PRES   REMARKS
PROVIDENCE     LGT RAIN  57  56  96 NE6       30.03F FOG
BLOCK ISLAND   LGT RAIN  63  63 100 S15       30.02F VSB 1/4
WESTERLY       LGT RAIN  62  60  93 E5        30.02S VSB 1/4

 IN MA

CITY           SKY/WX    TMP DP  RH WIND       PRES   REMARKS
BOSTON         HVY RAIN  54  53  97 CALM      30.05S FOG
WORCESTER      LGT RAIN  53  53 100 SE3       30.05R FOG
WESTFIELD      LGT RAIN  61  59  93 CALM      30.01S FOG
PROVINCETOWN   FOG       55  54  96 NE5       30.04F VSB 1/2
NANTUCKET      LGT RAIN  61  60  97 S10       30.04F VSB 1/4
$$

ANZ330-335-338-340-345-350-353-355-301100-
COASTAL MARINE OBSERVATIONS


STATION/POSITION TIME  SKY/WX   TEMP    WIND        PRES    VSBY  WAVE
                                AIR SEA DIR/SP/G                  HT/PER
                 (UTC)          (F)     (DEG/KT/KT) (MB)    (MI)  (FT/S)
NY HARB ENTRANCE 0850            61 59  180/ 10/ 10 1015.3          2/ 6
20S FIRE ISLAND  0850            63 61  190/ 12/ 14 1015.6          3/ 8
GREAT SOUTH BAY  0900            66 71  200/ 14/ 17   N/A
23 SSW MONTAUK P 0950            62 59  200/ 12/ 14 1015.9          2/ 8
15 E BARNEGAT LI 0922               61                N/A           3/ 8
HUDSON CANYON    0850            64 59              1016.9          3/ 8
KINGS POINT      0900            66 59              1015.4
EXECUTION ROCKS  NOT AVBL
CENTRAL LI SOUND 0900            65     210/  6/  6   N/A           1
EASTERN LI SOUND 0900            58 54   80/  8/ 10   N/A
ROBBINS REEF     0900            68     170/  3/  4 1015.0
$$


>>>>>>>>>>>>>>>>>>>>>>>>>>>> KEY <<<<<<<<<<<<<<<<<<<<<<<<<<<
>                                                          <
>     SKY/WX - SKY CONDITION/PRESENT WEATHER               <
>     TMP    - TEMPERATURE IN FAHRENHEIT                   <
>     DP     - DEWPOINT IN FAHRENHEIT                      <
>     RH     - RELATIVE HUMIDITY IN PERCENT                <
>     WIND   - DIRECTION AND SPEED IN MPH                  <
>     PRES   - MEAN SEA LEVEL PRESSURE IN INCHES OF HG     <
>     WCI    - WIND CHILL INDEX                            <
>     VSB    - VISIBILITY IN MILES                         <
>     HX     - HEAT INDEX                                  <
>     TC     - TEMPERATURE IN CELSIUS                      <
>     VRB    - VARIABLE WIND DIRECTION                     <
>                                                          <
>>>>>>>>>>>>>>>>>>>>>>>>>>>> KEY <<<<<<<<<<<<<<<<<<<<<<<<<<<






USA.gov is the U.S. government's official web portal to all federal, state and local government web resources and services.